Location: Calvatone
(45.1167°N, 10.4333°E)
Time: 08:59:42
(UTC+00:00)

METEOR M2 - Pass Details

Date: 06 December 2023
Orbit: 818 x 826 km, 98.4° (Epoch: 24 February)

Event Time Altitude Azimuth Distance (km) Brightness Sun altitude
Rises 16:02:07 0° 160° (SSE) 3,351 ? -4.8°
Reaches altitude 10° 16:04:27 10° 159° (SSE) 2,422 ? -5.1°
Maximum altitude 16:09:49 78° 74° (ENE) 850 ? -6.0°
Drops below altitude 10° 16:15:13 10° 349° (N) 2,438 ? -6.8°
Sets 16:17:35 0° 348° (NNW) 3,375 ? -7.2°
